Flag for Germany Weather past 2 weeks in Dresden, Saxony, Germany

Now
36 °F

Partly cloudy.


Feels Like: 26 °F
Forecast: 37 / 46 °F
Wind: 15 mph from West

Location: Dresden-Klotzsche

Current Time: Mar 3, 2015 at 4:44:08 AM

Latest Report: Mar 3, 2015 at 3:50 AM


Visibility: N/A

Pressure: 29.92 "Hg

Humidity: 81%

Dew point: 30 °F

Location of DresdenLocation

Historic Weather in Dresden — Graph

°F

Dresden temperature yesterday

Maximum temperature yesterday: 45 °F (at 11:20 AM)
Minimum temperature yesterday: 32 °F (at 11:50 PM)
Average temperature yesterday: 42 °F

Past Weeks' High & Low Weather Summary

 TemperatureHumidityPressure
High52 °F (Feb 20, 2:20 PM)100% (Feb 17, 5:50 PM)30.72 "Hg (Feb 17, 5:50 PM)
Low25 °F (Feb 20, 3:20 AM)34% (Feb 26, 2:20 PM)29.45 "Hg (Feb 21, 1:20 PM)
Average38 °F76%29.97 "Hg
* Reported Feb 16 3:20 AM — Mar 3 3:20 AM, Dresden, Weather by CustomWeather, © 2015

Note: Actual official high and low records may vary slightly from our data, if they occured in-between our weather recording intervals... More about our weather records

Advertising

Dresden weather history for previous 24 hours

 ConditionsComfort  
Time TempWeatherWind HumidityBarometerVisibility
3:20 AM
Tue, Mar 3
36 °FPartly cloudy.20 mph75%29.89 "HgN/A
2:50 AM36 °FClear.16 mph75%29.89 "Hg10 mi
2:20 AM36 °FClear.17 mph81%29.89 "Hg10 mi
1:50 AM36 °FClear.15 mph81%29.86 "Hg10 mi
1:20 AM36 °FClear.14 mph87%29.86 "Hg10 mi
12:50 AM34 °FPartly cloudy.10 mph93%29.86 "HgN/A
12:20 AM34 °FLight snow. Partly cloudy.12 mph93%29.83 "HgN/A
11:50 PM
Mon, Mar 2
32 °FLight snow. Ice fog.14 mph100%29.83 "Hg2 mi
11:20 PM36 °FLight rain. Partly cloudy.14 mph87%29.77 "Hg4 mi
10:50 PM39 °FClear.12 mph70%29.74 "Hg10 mi
10:20 PM37 °FClear.7 mph65%29.71 "Hg10 mi
9:50 PM39 °FClear.8 mph61%29.71 "Hg10 mi
9:20 PM39 °FClear.7 mph61%29.71 "Hg10 mi
8:50 PM39 °FClear.9 mph61%29.71 "Hg10 mi
8:20 PM39 °FClear.8 mph61%29.71 "Hg10 mi
7:50 PM41 °FClear.6 mph57%29.71 "Hg10 mi
7:20 PM39 °FClear.6 mph61%29.71 "Hg10 mi
6:50 PM41 °FPassing clouds.5 mph57%29.71 "HgN/A
6:20 PM41 °FPassing clouds.7 mph57%29.71 "HgN/A
5:50 PM41 °FPassing clouds.6 mph57%29.68 "HgN/A
5:20 PM43 °FPassing clouds.6 mph53%29.68 "HgN/A
4:50 PM43 °FPassing clouds.10 mph53%29.65 "HgN/A
4:20 PM45 °FPassing clouds.15 mph53%29.65 "HgN/A
3:50 PM45 °FScattered clouds.14 mph53%29.65 "HgN/A
3:20 PM45 °FPartly sunny.16 mph53%29.62 "HgN/A
2:50 PM45 °FPartly sunny.16 mph53%29.62 "HgN/A
2:20 PM43 °FScattered clouds.15 mph57%29.59 "HgN/A
1:50 PM45 °FScattered clouds.18 mph53%29.59 "HgN/A
1:20 PM45 °FPassing clouds.20 mph49%29.59 "HgN/A
12:50 PM45 °FPassing clouds.21 mph53%29.56 "HgN/A
12:20 PM45 °FBroken clouds.13 mph61%29.56 "HgN/A
11:50 AM45 °FBroken clouds.20 mph61%29.56 "HgN/A
11:20 AM45 °FPartly sunny.16 mph61%29.53 "HgN/A
10:50 AM43 °FPassing clouds.16 mph66%29.53 "HgN/A
10:20 AM43 °FPassing clouds.18 mph66%29.53 "HgN/A
9:50 AM43 °FPassing clouds.14 mph71%29.50 "HgN/A
9:20 AM43 °FPassing clouds.15 mph76%29.50 "HgN/A
8:50 AM43 °FPassing clouds.16 mph76%29.50 "HgN/A
8:20 AM41 °FScattered clouds.12 mph87%29.50 "HgN/A
7:50 AM41 °FPartly sunny.12 mph87%29.50 "HgN/A
7:20 AM41 °FRain showers. Partly sunny.7 mph93%29.47 "Hg1 mi
6:50 AM43 °FLight rain. Partly sunny.12 mph87%29.45 "HgN/A
6:20 AM43 °FRain. Passing clouds.13 mph87%29.45 "Hg4 mi
5:50 AM43 °FPassing clouds.12 mph81%29.45 "HgN/A
5:20 AM43 °FPartly cloudy.12 mph81%29.45 "HgN/A
4:50 AM43 °FPartly cloudy.15 mph81%29.47 "HgN/A
4:20 AM43 °FLight rain. Partly cloudy.13 mph76%29.50 "HgN/A
Weather by CustomWeather, © 2015

See weather overviewHow to use our weather pages